Location: Banff
(51.1667°N, 115.5667°W)
Time: 11:24:52
(UTC+00:00)

A-11 Canister half - Pass Details

Date: 02 December 2020
Orbit: 1524 x 1684 km, 47.3° (Epoch: 20 January)

Event Time Altitude Azimuth Distance (km) Brightness Sun altitude
Exits shadow 11:39:56 14° 189° (S) 3,640 10.8 -34.4°
Maximum altitude 11:47:06 31° 138° (SE) 2,642 10.4 -33.3°
Drops below altitude 10° 11:55:25 10° 81° (E) 3,916 12.0 -32.0°
Sets 11:59:00 0° 72° (ENE) 4,887 12.7 -31.4°
